"Pseudo-MPEC" for C8VFME2

Created 2023 Feb 8 12:22:04 UT using Find_Orb

Click here for an explanation of pseudo-MPECs

 
 Astrometry: 
     C8VFME2*1C2023 01 31.12773607 47 43.098+41 11 11.98   ~1V3q       VNEOCPG96
     C8VFME2 1C2023 01 31.13295007 47 41.615+41 10 38.14   ~1V3q 19.74GVNEOCPG96
     C8VFME2 1C2023 01 31.13816207 47 40.110+41 10 04.22   ~1V3q 20.61GVNEOCPG96
     C8VFME2 1C2023 01 31.14338307 47 38.623+41 09 28.94   ~1V3q 20.52GVNEOCPG96
     C8VFME2 KC2023 01 31LTKUr.3vxnC2cwDr`yubBR/P6h8w.:#be35MF1Kn/71`6^F53'QU734
     C8VFME2 KC2023 01 31Y`,I(DF68$SW7h+]S0,H=8!#M4*$j=Pgtg72kDC(fN@?_L6aC8yE734
     C8VFME2  C2023 01 31.17920107 47 28.151+41 05 28.09   ~1V57 20.5 GVNEOCPH01
     C8VFME2 KC2023 01 31;3y*W=-^'%mmqAstrometry7kS#?MwXS3sw%LvARc@6A78NO;0Ub734
     C8VFME2 mC2023 01 31WLTHYWB-.:AN7GgBSQir.\F]Q089hm6x%X_33y/ak0aXRn/H^[V@V00
     C8VFME2 KC2023 01 31\:KlRdZK2q#7)b$p;3W,CseOgNx%dTyFnJ8!5sGD)8Mkx,*UmM(2734
     C8VFME2 mC2023 01 31Wp:Uu$/OJredacted;Xyc34\95v'-gD_MN;tUw,2GGgw%QLPcK9PV00
     C8VFME2  C2023 01 31.18573007 47 26.260+41 04 43.90   ~1V57 20.4 GVNEOCPH01
     C8VFME2 mC2023 01 31:OCO/?Wp,UV3]K.8Hn%poFmuw?K:Dj^m3hRyL8T(7Sh)V\.L,/s'V00
     C8VFME2 mC2023 01 31,8,G6clickJku=%cs1bEJ(P-[rj7TS=`b6AH(hereMI?w;:ntWA+V00
     C8VFME2  C2023 01 31.19505107 47 23.579+41 03 41.25   ~1V57 20.3 GVNEOCPH01
     C8VFME2  C2023 01 31.19965307 47 22.245+41 03 10.18   ~1V57 20.6 GVNEOCPH01
     C8VFME2 KC2023 01 31?A/5I9v^1fP@smZ[^^@O-_'SOv0K\)lko_:-p[]jT+KjCMNcV5#7587
     C8VFME2 KC2023 01 3180AhAlJ$8pCaU7n%r,pMkAq4HEQ$ZTpLe7;`)edu5-\jEPJq6tD'587
     C8VFME2 KC2023 01 31;;o=:GuO!k!@(pe\E`KRBpQM@Ic:GE/=:L1;G`qm7u2r;H=!tIxj204
     C8VFME2 KC2023 01 31!Kd$h$%3gv(9.w:Hn-`]+Xx-uy'xwKSiWkm7X43:Mu8Bx`OpF2!X204
     C8VFME2 KC2023 01 31.91035507 44 13.423+39 41 46.54   ~218q 21.0 GVNEOCPJ95
     C8VFME2 KC2023 01 31d/SjRop+r_==-.OAuDIK\kIvtsforwauUK^ciNo_DT1^qNkY#2UGZ41
     C8VFME2 KC2023 01 31[Z]]4!V1b+f3iOWrDpyMTJUE^22m4GMqN0_Ofpkr7X;f53e+*28BZ41
     C8VFME2 KC2023 01 31A^TJshq9E0yNQexplanationo?#`RMgRlM6d9N,[f356`#.aSKo(Z41
     C8VFME2 HC2023 01 31.93202207 44 07.498+39 39 18.25   ~218q       VNEOCPJ95
     C8VFME2 KC2023 02 01.22216707 42 53.223+39 06 00.84   ~2167 20.6 GVNEOCPH01
     C8VFME2 KC2023 02 01.22655907 42 52.007+39 05 30.30   ~2167 20.4 GVNEOCPH01
     C8VFME2 KC2023 02 01.23466407 42 49.799+39 04 34.34   ~2167 20.7 GVNEOCPH01
     C8VFME2 KC2023 02 01.24276007 42 47.575+39 03 38.17   ~2167 20.7 GVNEOCPH01
     C8VFME2 HC2023 02 07.84132007 20 06.958+26 00 41.22   ~28B7x21.3 GVNEOCPJ95
     C8VFME2 KC2023 02 07.87696707 20 00.696+25 56 29.90   ~28B7x21.4 GVNEOCPJ95
     C8VFME2 KC2023 02 08.40346407 18 34.459+24 54 54.04   ~28AM 21.09GVNEOCPI52
     C8VFME2 KC2023 02 08.40646107 18 33.876+24 54 31.79   ~28AM 20.80GVNEOCPI52
     C8VFME2 KC2023 02 08.41242007 18 32.980+24 53 50.14   ~28AM 22.24GVNEOCPI52

Station data:
(204) Schiaparelli Observatory  (N45.867930 E8.770800)  Italy.  Observer L.
   Buzzi. 0.60-m f/4.64 Newtonian + CCD0.84-m f/3.5 reflector + CCD.
(587) Sormano  (N45.882946 E9.229180)  Italy.  Observers E. Colzani, E. Valli.
    Measurer P. Sicoli. 0.5-m f/6.8 reflector + CCD.
(734) Farpoint Observatory, Eskridge  (N38.890104 W96.001400)  US/Kansas.
   Observer G. Hug. 0.69-m reflector + CCD.
(G96) Mt. Lemmon Survey  (N32.442751 W110.788720)  US/Arizona.  Observers T.
   A. Pruyne, B. M. Africano, E. J. Christensen, G. A. Farneth, D. C. Fuls,
   A. R. Gibbs, A. D. Grauer, H. Gröller, J. A. Johnson, R. A. Kowalski, S.
   M. Larson, G. J. Leonard, D. Rankin, R. L. Seaman, F. C. Shelly, K. W.
   Wierzchoś. 1.5-m reflector + 10K CCD.
(H01) Magdalena Ridge Observatory, Socorro  (N33.984833 W107.189333)  US/New
   Mexico.  Observers W. H. Ryan, E. V. Ryan. Measurer W. H. Ryan. 2.4-m
   f/8.9 reflector + CCD.
(I52) Steward Observatory, Mt. Lemmon Station  (N32.442544 W110.788920)
   US/Arizona.  Observers T. A. Pruyne, B. M. Africano, E. J. Christensen, G.
   A. Farneth, D. C. Fuls, A. R. Gibbs, A. D. Grauer, H. Gröller, J. A.
   Johnson, R. A. Kowalski, S. M. Larson, G. J. Leonard, D. Rankin, R. L.
   Seaman, F. C. Shelly, K. W. Wierzchoś. 1.0-m reflector + CCD.
(J95) Great Shefford  (N51.474969 W1.447003)  UK/England.  Observer P.
   Birtwhistle. 0.41-m f/6.3 Schmidt-Cassegrain + CCD.
(V00) Kitt Peak-Bok  (N31.963125 W111.600190)  US/Arizona.  Observers T. A.
   Pruyne, B. M. Africano, E. J. Christensen, G. A. Farneth, D. C. Fuls, A.
   R. Gibbs, A. D. Grauer, H. Gröller, J. A. Johnson, R. A. Kowalski, S. M.
   Larson, G. J. Leonard, D. Rankin, R. L. Seaman, F. C. Shelly, K. W.
   Wierzchoś. 2.25-m reflector + CCD.
(Z41) Irydeo Observatory, Camarma de Esteruelas  (N40.561115 W3.373600)
   Spain.  Observer F. Calvo. 0.16-m f/3.3 reflector + CCD.

Orbital elements:  C8VFME2
   Perihelion 2023 Feb 11.54118 +/- 0.0372 TT = 12:59:17 (JD 2459987.04118)
Epoch 2023 Feb  8.0 TT = JDT 2459983.5   Earth MOID: 0.1835      AutoNEOCP
M 357.80576234 +/- 0.028            (J2000 ecliptic)
n   0.61963495 +/- 0.0021           Peri.  181.49017 +/- 0.031
a   1.36263259 +/- 0.00307          Node   314.75042 +/- 0.018
e   0.1419318 +/- 0.00139           Incl.   25.10018 +/- 0.09
P   1.59/580.98d           H 22.98  G  0.15   U  8.6
q 1.16923165 +/- 0.000745    Q 1.55603354 +/- 0.0054
28 of 34 observations 2023 Jan. 31-Feb. 8; mean residual 0".41
Residuals in arcseconds: 
230131 G96  .14+  .86-    230131 V00  .06-  .19-    230131 J95  .18-  .45+    
230131 G96  .15+  .10+    230131 V00  .28+  .29-    230201 H01  .68+  .46-    
230131 G96  .07-  .99+    230131 H01  .02+  .08-    230201 H01  .52+  .62-    
230131 G96  .03-  .60+    230131 H01  .02-  .11-    230201 H01  .63+  .47-    
230131 734( 3.0+  3.3+)   230131 587  .39+  .17-    230201 H01  .53+  .53-    
230131 734( 1.6+  2.9+)   230131 587  .02+  .37-    230207 J95( .71+  .11-)   
230131 H01  .02-  .03+    230131 204  .18+  .13+    230207 J95( .57-  .92-)   
230131 734( 1.6+  2.5+)   230131 204  .85+  .25-    230208 I52  .54+  .46+    
230131 V00  .11-  .16-    230131 J95  .18-  .26-    230208 I52  .76-  .53-    
230131 734( .74+  1.8+)   230131 Z41  .10-  .19+    230208 I52  .19+  .09+    
230131 V00  .06-  .20-    230131 Z41  .12+  .81+    
230131 H01  .10-  .22-    230131 Z41  .76-  .07+    

Ephemerides (geocentric):
Date (UTC) HH   RA             Dec           delta  r     elong  mag " sig PA
---- --------  ------------   ------------  ------ ------ -----  --- --------
2023 02 08 12  07 18 21.822   +24 43 51.18  .20860 1.1694 148.5 21.2 .207  81
2023 02 08 13  07 18 15.414   +24 38 59.68  .20867 1.1694 148.5 21.2 .218  82
2023 02 08 14  07 18 09.028   +24 34 08.35  .20875 1.1694 148.4 21.2 .229  83
2023 02 08 15  07 18 02.662   +24 29 17.20  .20883 1.1694 148.4 21.2 .240  83
2023 02 08 16  07 17 56.316   +24 24 26.23  .20890 1.1694 148.3 21.2 .252  84
2023 02 08 17  07 17 49.991   +24 19 35.44  .20898 1.1694 148.3 21.2 .263  85
2023 02 08 18  07 17 43.687   +24 14 44.83  .20906 1.1694 148.2 21.2 .275  85
2023 02 08 19  07 17 37.403   +24 09 54.41  .20914 1.1693 148.2 21.2 .287  86
2023 02 08 20  07 17 31.139   +24 05 04.17  .20922 1.1693 148.1 21.2 .299  86
2023 02 08 21  07 17 24.896   +24 00 14.11  .20930 1.1693 148.1 21.2 .312  86
2023 02 08 22  07 17 18.673   +23 55 24.25  .20938 1.1693 148.0 21.2 .324  87
2023 02 08 23  07 17 12.471   +23 50 34.58  .20947 1.1693 148.0 21.2 .336  87
2023 02 09 00  07 17 06.288   +23 45 45.10  .20955 1.1693 147.9 21.2 .349  88
2023 02 09 01  07 17 00.126   +23 40 55.81  .20963 1.1693 147.9 21.2 .362  88
2023 02 09 02  07 16 53.984   +23 36 06.72  .20971 1.1693 147.8 21.2 .375  88
2023 02 09 03  07 16 47.863   +23 31 17.82  .20980 1.1693 147.8 21.2 .387  88
2023 02 09 04  07 16 41.761   +23 26 29.13  .20988 1.1693 147.7 21.2 .401  89
2023 02 09 05  07 16 35.679   +23 21 40.63  .20997 1.1693 147.7 21.2 .414  89
2023 02 09 06  07 16 29.618   +23 16 52.34  .21005 1.1693 147.6 21.2 .427  89
2023 02 09 07  07 16 23.576   +23 12 04.25  .21014 1.1693 147.6 21.2 .441  89
2023 02 09 08  07 16 17.555   +23 07 16.37  .21023 1.1693 147.5 21.2 .454  89
2023 02 09 09  07 16 11.553   +23 02 28.69  .21031 1.1693 147.5 21.2 .468  90
2023 02 09 10  07 16 05.571   +22 57 41.22  .21040 1.1693 147.4 21.2 .481  90
2023 02 09 11  07 15 59.609   +22 52 53.97  .21049 1.1693 147.3 21.2 .495  90
2023 02 09 12  07 15 53.667   +22 48 06.92  .21058 1.1693 147.3 21.2 .509  90
2023 02 09 13  07 15 47.745   +22 43 20.09  .21067 1.1693 147.2 21.2 .523  90
2023 02 09 14  07 15 41.842   +22 38 33.47  .21076 1.1693 147.2 21.2 .538  90
2023 02 09 15  07 15 35.959   +22 33 47.08  .21085 1.1693 147.1 21.2 .552  90
2023 02 09 16  07 15 30.096   +22 29 00.90  .21094 1.1693 147.1 21.2 .566  90
2023 02 09 17  07 15 24.252   +22 24 14.93  .21103 1.1693 147.0 21.2 .581  90
2023 02 09 18  07 15 18.428   +22 19 29.20  .21112 1.1693 147.0 21.2 .596  91
2023 02 09 19  07 15 12.623   +22 14 43.68  .21122 1.1693 146.9 21.2 .610  91
2023 02 09 20  07 15 06.838   +22 09 58.39  .21131 1.1693 146.9 21.2 .625  91
2023 02 09 21  07 15 01.073   +22 05 13.32  .21140 1.1693 146.8 21.2 .640  91
2023 02 09 22  07 14 55.326   +22 00 28.49  .21150 1.1693 146.8 21.2 .655  91
2023 02 09 23  07 14 49.600   +21 55 43.88  .21159 1.1693 146.7 21.2 .671  91
2023 02 10 00  07 14 43.892   +21 50 59.50  .21169 1.1693 146.6 21.2 .686  91
2023 02 10 01  07 14 38.204   +21 46 15.36  .21178 1.1693 146.6 21.2 .701  91
2023 02 10 02  07 14 32.535   +21 41 31.44  .21188 1.1693 146.5 21.2 .717  91
2023 02 10 03  07 14 26.886   +21 36 47.77  .21198 1.1693 146.5 21.2 .732  91
2023 02 10 04  07 14 21.255   +21 32 04.33  .21208 1.1693 146.4 21.2 .748  91
2023 02 10 05  07 14 15.644   +21 27 21.13  .21217 1.1693 146.4 21.2 .764  91
2023 02 10 06  07 14 10.052   +21 22 38.16  .21227 1.1693 146.3 21.2 .780  91
2023 02 10 07  07 14 04.479   +21 17 55.44  .21237 1.1693 146.3 21.2 .796  91
2023 02 10 08  07 13 58.925   +21 13 12.96  .21247 1.1693 146.2 21.3 .812  91
2023 02 10 09  07 13 53.390   +21 08 30.73  .21257 1.1693 146.1 21.3 .828  91
2023 02 10 10  07 13 47.874   +21 03 48.74  .21267 1.1693 146.1 21.3 .845  91
2023 02 10 11  07 13 42.377   +20 59 06.99  .21277 1.1692 146.0 21.3 .861  91